1484269200.06,65374,4.88,71804.5,-10.25,-11.23,-11.23,0,*65
1484269201.3,65375,4.88,71780.3,-10.23,-11.33,-11.23,0,*63
1484269202.59,65376,4.88,71770.0,-10.25,-11.37,-11.51,0,*67
1484269203.88,65377,4.88,71760.8,-10.25,-11.55,-11.55,0,*66
1484269205.14,65378,4.88,71772.3,-10.25,-11.41,-11.37,0,*68
1484269206.41,65379,4.94,71798.0,-10.25,-11.37,-11.41,0,*69
1484269207.7,65380,4.88,71806.3,-10.25,-11.37,-11.37,0,*6E
1484269208.96,65381,4.88,71808.3,-10.25,-11.29,-11.23,0,*65
1484269210.2,65382,4.88,71830.5,-10.25,-11.15,-11.15,0,*6C
1484269211.44,65383,4.88,71826.0,-10.25,-11.15,-11.11,0,*69
1484269212.68,65384,4.88,71804.3,-10.25,-11.15,-11.15,0,*6A
1484269213.89,65385,4.94,71810.3,-10.23,-11.11,-11.11,0,*6D
1484269215.13,65386,4.88,71798.5,-10.25,-11.11,-11.11,0,*68
1484269216.43,65387,4.88,71810.0,-10.25,-11.07,-11.07,0,*69
1484269217.66,65388,4.88,71788.8,-10.25,-11.11,-11.11,0,*66
1484269218.96,65389,4.94,71784.3,-10.25,-11.07,-11.07,0,*67
1484269220.25,65390,4.88,71774.8,-10.25,-11.07,-11.07,0,*6F
1484269221.55,65391,4.88,71736.8,-10.25,-11.07,-11.07,0,*6E
1484269222.77,65392,4.88,71790.3,-10.23,-11.01,-11.11,0,*6A
1484269224.0,65393,4.88,71800.3,-10.23,-11.07,-11.11,0,*6D
1484269225.22,65394,4.88,71816.0,-10.23,-11.01,-11.01,0,*6D
1484269226.49,65395,4.88,71836.5,-10.23,-11.07,-11.07,0,*6C
1484269227.74,65396,4.94,71832.8,-10.23,-11.01,-11.07,0,*69
1484269229.0,65397,4.88,71824.0,-10.25,-11.11,-11.07,0,*6F
1484269230.27,65398,4.88,71820.5,-10.25,-11.07,-11.11,0,*60
1484269231.51,65399,4.88,71852.3,-10.23,-11.07,-11.11,0,*67
1484269232.74,65400,4.88,71812.5,-10.23,-11.23,-11.33,0,*66
1484269234.04,65401,4.88,71842.0,-10.25,-11.29,-11.29,0,*60
1484269235.3,65402,4.88,71850.0,-10.23,-11.33,-11.33,0,*65
1484269236.54,65403,4.88,71820.5,-10.23,-11.45,-11.37,0,*61
1484269237.83,65404,4.88,71830.8,-10.25,-11.63,-11.55,0,*60
1484269239.09,65405,4.88,71836.8,-10.23,-11.85,-11.73,0,*6B
1484269240.36,65406,4.88,71856.5,-10.25,-12.11,-12.03,0,*64
1484269241.62,65407,4.88,71860.3,-10.25,-12.47,-12.11,0,*65
1484269242.87,65408,4.88,71838.0,-10.23,-13.19,-12.75,0,*64
1484269244.14,65409,4.88,71838.5,-10.25,-13.23,-12.71,0,*6E
1484269245.38,65410,4.88,71848.3,-10.23,-13.55,-12.75,0,*65
1484269246.62,65411,4.88,71846.3,-10.23,-13.87,-12.89,0,*68
1484269247.89,65412,4.88,71844.3,-10.23,-14.01,-13.01,0,*63
1484269249.1,65413,4.88,71846.3,-10.23,-14.29,-13.15,0,*6D
1484269250.32,65414,4.88,71856.0,-10.23,-14.19,-12.93,0,*66
1484269251.58,65415,4.88,71840.8,-10.23,-13.61,-12.61,0,*62
1484269252.82,65416,4.88,71840.0,-10.23,-12.29,-11.89,0,*69
1484269254.08,65417,4.88,71824.3,-10.23,-11.73,-11.59,0,*69
1484269255.32,65418,4.88,71800.3,-10.23,-11.51,-11.45,0,*6B
1484269256.56,65419,4.88,71728.5,-10.23,-11.51,-11.45,0,*6A
1484269257.85,65420,4.88,71718.8,-10.25,-11.67,-11.63,0,*67
1484269259.11,65421,4.88,71738.3,-10.23,-11.73,-11.59,0,*6C
1484269260.37,65422,4.88,71766.3,-10.23,-11.63,-11.51,0,*66
1484269261.59,65423,4.88,71790.8,-10.23,-11.23,-11.23,0,*66
1484269262.8,65424,4.88,71804.5,-10.23,-11.11,-11.11,0,*61
1484269264.09,65425,4.88,71780.0,-10.25,-11.07,-11.07,0,*66
1484269265.33,65426,4.88,71770.5,-10.25,-11.11,-11.11,0,*65
1484269266.54,65427,4.88,71772.0,-10.23,-11.19,-11.19,0,*62
1484269267.75,65428,4.88,71804.8,-10.23,-11.11,-11.19,0,*65
1484269268.96,65429,4.88,71794.5,-10.23,-11.23,-11.23,0,*6C
1484269270.2,65430,4.88,71778.0,-10.23,-11.33,-11.19,0,*6C
1484269271.41,65431,4.88,71798.3,-10.23,-11.23,-11.19,0,*6C
1484269272.68,65432,4.88,71768.8,-10.25,-11.29,-11.23,0,*6A
1484269273.92,65433,4.88,71748.3,-10.23,-11.33,-11.23,0,*66
1484269275.15,65434,4.88,71762.0,-10.23,-11.33,-11.19,0,*68
1484269276.42,65435,4.88,71798.3,-10.25,-11.41,-11.37,0,*66
1484269277.62,65436,4.88,71776.8,-10.23,-11.19,-11.19,0,*62
1484269278.91,65437,4.88,71780.0,-10.25,-11.37,-11.37,0,*65
1484269280.15,65438,4.88,71792.3,-10.23,-11.45,-11.33,0,*6D
1484269281.39,65439,4.88,71780.0,-10.23,-11.59,-11.45,0,*60
1484269282.63,65440,4.88,71772.3,-10.23,-11.63,-11.45,0,*67
1484269283.89,65441,4.88,71794.3,-10.23,-11.77,-11.63,0,*67
1484269285.18,65442,4.88,71782.8,-10.21,-11.63,-11.37,0,*62
1484269286.47,65443,4.88,71806.0,-10.21,-11.73,-11.51,0,*62
1484269287.76,65444,4.88,71784.0,-10.21,-11.63,-11.51,0,*64
1484269289.02,65445,4.88,71726.8,-10.21,-11.59,-11.45,0,*69
1484269290.26,65446,4.88,71814.8,-10.23,-11.51,-11.45,0,*60
1484269291.5,65447,4.88,71710.5,-10.23,-11.59,-11.45,0,*69
1484269292.76,65448,4.88,71772.3,-10.23,-11.89,-11.73,0,*6E
1484269294.06,65449,4.88,71756.3,-10.21,-11.85,-11.63,0,*60
1484269295.35,65450,4.88,71748.5,-10.21,-11.77,-11.63,0,*65
1484269296.61,65451,4.88,71814.0,-10.23,-11.63,-11.51,0,*62
1484269297.85,65452,4.88,71788.0,-10.23,-11.59,-11.45,0,*6D
1484269299.15,65453,4.88,71828.5,-10.25,-11.67,-11.55,0,*66
1484269300.43,65454,4.88,71884.0,-10.25,-11.63,-11.37,0,*61
1484269301.67,65455,4.88,71792.5,-10.23,-11.73,-11.45,0,*62
1484269302.96,65456,4.88,71728.5,-10.25,-11.81,-11.55,0,*6B
1484269304.22,65457,4.88,71732.8,-10.23,-11.85,-11.63,0,*6D
1484269305.48,65458,4.88,71758.8,-10.23,-11.85,-11.59,0,*6B
1484269306.75,65459,4.88,71752.5,-10.23,-11.85,-11.73,0,*62
1484269308.01,65460,4.88,71800.3,-10.23,-11.85,-11.73,0,*68
1484269309.3,65461,4.88,71832.0,-10.25,-11.89,-11.67,0,*66
1484269310.56,65462,4.88,71806.5,-10.23,-11.97,-11.59,0,*61
1484269311.83,65463,4.88,71772.5,-10.23,-11.89,-11.63,0,*66
1484269313.13,65464,4.88,71778.5,-10.25,-11.93,-11.67,0,*68
1484269314.39,65465,4.88,71794.3,-10.23,-11.77,-11.51,0,*60
1484269315.65,65466,4.88,71810.0,-10.23,-11.51,-11.51,0,*67
1484269316.9,65467,4.88,71850.8,-10.23,-11.37,-11.33,0,*62
1484269318.14,65468,4.88,71846.8,-10.23,-11.33,-11.19,0,*61
1484269319.42,65469,4.88,71818.5,-10.25,-11.37,-11.37,0,*6E
1484269320.66,65470,4.88,71770.8,-10.23,-11.33,-11.23,0,*61
1484269321.89,65471,4.88,71754.3,-10.23,-11.37,-11.23,0,*64
1484269323.11,65472,4.88,71804.3,-10.23,-11.23,-11.23,0,*62
1484269324.38,65473,4.88,71822.8,-10.25,-11.29,-11.19,0,*66
1484269325.67,65474,4.88,71808.8,-10.25,-11.29,-11.29,0,*62
1484269326.91,65475,4.88,71802.3,-10.25,-11.23,-11.23,0,*63
1484269328.12,65476,4.88,71798.8,-10.23,-11.11,-11.19,0,*6E
1484269329.33,65477,4.88,71790.0,-10.23,-11.11,-11.19,0,*6F
1484269330.54,65478,4.88,71798.5,-10.23,-11.19,-11.11,0,*60
1484269331.75,65479,4.88,71794.3,-10.23,-11.19,-11.11,0,*61
1484269332.96,65480,4.88,71786.8,-10.23,-11.11,-11.11,0,*6F
1484269334.2,65481,4.88,71816.0,-10.23,-11.11,-11.07,0,*69
1484269335.44,65482,4.88,71800.0,-10.23,-11.11,-11.07,0,*6A
1484269336.64,65483,4.88,71826.5,-10.23,-11.19,-11.11,0,*64
1484269337.85,65484,4.88,71812.5,-10.23,-11.11,-11.11,0,*6B
1484269339.09,65485,4.88,71810.3,-10.23,-11.11,-11.07,0,*6D
1484269340.33,65486,4.88,71798.3,-10.23,-11.11,-11.07,0,*6E
1484269341.57,65487,4.88,71784.0,-10.21,-11.11,-11.11,0,*6A
1484269342.84,65488,4.88,71760.3,-10.21,-11.07,-11.11,0,*62
1484269344.05,65489,4.88,71762.3,-10.19,-11.23,-11.23,0,*6F
1484269345.31,65490,4.88,71782.8,-10.21,-11.23,-11.33,0,*6D
1484269346.58,65491,4.88,71782.3,-10.21,-11.51,-11.45,0,*68
1484269347.86,65492,4.88,71798.5,-10.21,-11.51,-11.51,0,*6E
1484269349.13,65493,4.88,71790.5,-10.19,-11.59,-11.67,0,*69
1484269350.42,65494,4.88,71774.0,-10.21,-11.85,-11.85,0,*68
1484269351.68,65495,4.88,71798.3,-10.21,-11.85,-12.03,0,*64
1484269352.97,65496,4.88,71816.0,-10.21,-11.85,-12.07,0,*63
1484269354.24,65497,4.88,71816.0,-10.23,-11.97,-12.07,0,*63
1484269355.48,65498,4.88,71806.3,-10.23,-12.07,-12.43,0,*66
1484269356.74,65499,4.88,71798.3,-10.23,-12.35,-12.57,0,*63
1484269358.01,65500,4.88,71790.0,-10.25,-12.39,-12.75,0,*68
1484269359.27,65501,4.88,71802.0,-10.23,-12.75,-12.75,0,*67
1484269360.52,65502,4.88,71822.8,-10.23,-12.21,-11.97,0,*6A
1484269361.78,65503,4.88,71836.5,-10.23,-11.73,-11.51,0,*65
1484269363.04,65504,4.88,71810.0,-10.23,-11.59,-11.51,0,*6A
1484269364.27,65505,4.88,71752.3,-10.23,-11.51,-11.45,0,*66
1484269365.51,65506,4.88,71774.3,-10.23,-11.45,-11.37,0,*65
1484269366.75,65507,4.88,71780.3,-10.23,-11.37,-11.45,0,*64
1484269368.01,65508,4.88,71774.8,-10.23,-11.37,-11.37,0,*6E
1484269369.24,65509,4.88,71766.5,-10.23,-11.23,-11.33,0,*6E
1484269370.48,65510,4.88,71758.3,-10.23,-11.23,-11.33,0,*66
1484269371.68,65511,4.88,71756.0,-10.23,-11.19,-11.23,0,*6F
1484269372.89,65512,4.88,71754.3,-10.23,-11.19,-11.19,0,*65
1484269374.13,65513,4.88,71750.0,-10.23,-11.07,-11.11,0,*63
1484269375.37,65514,4.88,71740.5,-10.23,-11.01,-11.07,0,*65
1484269376.59,65515,4.88,71744.8,-10.23,-10.93,-11.01,0,*68
1484269377.8,65516,4.88,71738.3,-10.23,-10.93,-10.89,0,*6A
1484269379.02,65517,4.88,71712.5,-10.23,-10.89,-10.93,0,*6B
1484269380.26,65518,4.88,71716.5,-10.21,-10.89,-10.89,0,*6D
1484269381.5,65519,4.88,71704.3,-10.21,-10.93,-10.93,0,*6C
1484269382.74,65520,4.88,71724.3,-10.21,-10.89,-10.93,0,*6D
1484269383.98,65521,4.88,71696.5,-10.21,-10.93,-10.93,0,*67
1484269385.27,65522,4.88,71718.3,-10.21,-11.07,-11.07,0,*64
1484269386.48,65523,4.88,71664.3,-10.23,-11.11,-11.11,0,*67
1484269387.72,65524,4.88,71644.8,-10.21,-11.11,-11.11,0,*62
1484269388.96,65525,4.88,71664.8,-10.21,-11.19,-11.19,0,*63
1484269390.2,65526,4.88,71652.8,-10.21,-11.45,-11.45,0,*60
1484269391.49,65527,4.88,71658.5,-10.21,-11.51,-11.59,0,*69
1484269392.78,65528,4.88,71628.3,-10.21,-11.63,-11.77,0,*6B
1484269394.04,65529,4.88,71676.5,-10.23,-11.63,-11.77,0,*68
1484269395.31,65530,4.88,71704.8,-10.23,-11.63,-11.63,0,*65
1484269396.55,65531,4.88,71726.5,-10.23,-11.45,-11.59,0,*69
1484269397.79,65532,4.88,71748.3,-10.23,-11.45,-11.37,0,*62
1484269399.05,65533,4.88,71810.5,-10.23,-11.33,-11.37,0,*62
1484269400.26,65534,4.88,71760.8,-10.23,-11.11,-11.11,0,*61
1484269401.5,65535,4.88,71762.5,-10.23,-11.33,-11.11,0,*60
1484269402.69,0,4.88,71780.8,-10.23,-11.19,-11.11,0,*68
1484269403.88,1,4.88,71796.8,-10.23,-11.23,-11.19,0,*68
1484269405.09,2,4.88,71794.8,-10.21,-11.11,-11.11,0,*60
1484269406.33,3,4.88,71770.5,-10.21,-11.33,-11.19,0,*69
1484269407.55,4,4.88,71776.5,-10.21,-11.23,-11.23,0,*66
1484269408.8,5,4.88,71790.0,-10.19,-11.07,-11.07,0,*6C
1484269410.04,6,4.88,71800.8,-10.21,-11.07,-11.11,0,*63
1484269411.28,7,4.88,71796.5,-10.21,-11.07,-11.11,0,*62
1484269412.5,8,4.88,71842.3,-10.21,-11.01,-11.11,0,*6B
1484269413.69,9,4.88,71826.0,-10.19,-10.89,-11.01,0,*61
1484269414.92,10,4.88,71744.3,-10.19,-11.19,-11.07,0,*57
1484269416.17,11,4.88,71702.5,-10.21,-11.59,-11.23,0,*5F
1484269417.41,12,4.88,71716.3,-10.21,-11.73,-11.45,0,*54
1484269418.67,13,4.88,71718.3,-10.21,-12.21,-11.73,0,*54
1484269419.91,14,4.88,71782.0,-10.21,-12.29,-11.73,0,*5B
1484269421.18,15,4.88,71788.5,-10.21,-12.35,-11.77,0,*53
1484269422.43,16,4.88,71750.5,-10.21,-12.43,-11.85,0,*5C
1484269423.7,17,4.88,71764.5,-10.21,-12.57,-11.97,0,*5B
1484269424.94,18,4.88,71816.0,-10.21,-12.03,-11.77,0,*5B
1484269426.19,19,4.88,71788.5,-10.21,-12.03,-11.63,0,*5F
1484269427.44,20,4.88,71802.5,-10.21,-11.85,-11.45,0,*5C
1484269428.64,21,4.88,71804.0,-10.19,-11.45,-11.19,0,*53
1484269429.89,22,4.88,71822.8,-10.21,-11.37,-11.23,0,*57
1484269431.11,23,4.88,71772.8,-10.19,-11.29,-11.19,0,*5B
1484269432.34,24,4.88,71766.5,-10.21,-11.23,-11.19,0,*5D
1484269433.59,25,4.88,71764.5,-10.19,-11.07,-11.07,0,*5E
1484269434.84,26,4.88,71800.8,-10.19,-11.07,-11.07,0,*5D
1484269436.08,27,4.88,71786.3,-10.19,-10.97,-11.07,0,*54
1484269437.28,28,4.88,71774.3,-10.19,-10.97,-10.97,0,*53
1484269438.49,29,4.88,71788.3,-10.19,-10.89,-10.97,0,*5D
1484269439.69,30,4.88,71726.8,-10.19,-11.01,-11.01,0,*5A
1484269440.91,31,4.88,71752.5,-10.19,-11.07,-11.15,0,*58
1484269442.17,32,4.88,71814.5,-10.19,-11.07,-11.07,0,*58
1484269443.42,33,4.88,71784.5,-10.15,-11.07,-11.07,0,*55
1484269444.67,34,4.88,71756.5,-10.19,-11.07,-11.07,0,*5E
1484269445.89,35,4.88,71750.5,-10.21,-11.19,-11.23,0,*5D
1484269447.08,36,4.88,71816.3,-10.19,-11.15,-11.19,0,*50
1484269448.3,37,4.88,71756.3,-10.19,-11.19,-11.29,0,*5E
1484269449.5,38,4.88,71782.5,-10.19,-11.15,-11.19,0,*5E
1484269450.75,39,4.88,71814.3,-10.19,-11.07,-11.07,0,*53
1484269452.01,40,4.88,71790.8,-10.19,-11.07,-11.07,0,*5D
1484269453.26,41,4.88,71812.3,-10.19,-11.07,-11.07,0,*5C
1484269454.52,42,4.88,71782.8,-10.19,-11.07,-11.07,0,*5F
1484269455.71,43,4.88,71790.5,-10.19,-11.15,-11.15,0,*5E
1484269456.91,44,4.88,71788.5,-10.19,-11.19,-11.19,0,*59
1484269458.16,45,4.88,71802.5,-10.19,-11.29,-11.29,0,*58
1484269459.38,46,4.88,71802.8,-10.15,-11.41,-11.33,0,*52
1484269460.62,47,4.88,71808.8,-10.15,-11.33,-11.29,0,*5D
1484269461.87,48,4.88,71804.5,-10.15,-11.29,-11.29,0,*59
1484269463.12,49,4.88,71722.0,-10.15,-11.29,-11.29,0,*58
1484269464.31,50,4.88,71732.3,-10.15,-11.41,-11.41,0,*50
1484269465.52,51,4.88,71742.0,-10.19,-11.41,-11.41,0,*5D
1484269466.72,52,4.88,71752.8,-10.19,-11.45,-11.45,0,*5E
1484269467.93,53,4.88,71774.3,-10.19,-11.41,-11.41,0,*5F
1484269469.15,54,4.88,71772.5,-10.19,-11.33,-11.19,0,*50
1484269470.4,55,4.88,71778.5,-10.19,-11.33,-11.29,0,*52
1484269471.59,56,4.81,71780.3,-10.19,-11.19,-11.19,0,*5A
1484269472.81,57,4.88,71786.0,-10.19,-11.19,-11.29,0,*58
1484269474.03,58,4.88,71798.8,-10.19,-11.19,-11.29,0,*57
1484269475.26,59,4.88,71792.0,-10.19,-11.15,-11.07,0,*56
1484269476.49,60,4.88,71804.8,-10.19,-11.01,-11.07,0,*59
1484269477.71,61,4.88,71804.8,-10.15,-10.97,-11.07,0,*5A
1484269478.9,62,4.88,71808.3,-10.15,-10.85,-11.01,0,*5C
1484269480.1,63,4.88,71802.0,-10.15,-10.97,-11.01,0,*5E
1484269481.31,64,4.88,71812.3,-10.15,-10.97,-10.97,0,*57
1484269482.5,65,4.88,71806.5,-10.15,-10.85,-10.89,0,*5A
1484269483.68,66,4.88,71808.5,-10.15,-10.85,-10.85,0,*55
1484269484.87,67,4.88,71746.8,-10.15,-10.85,-10.89,0,*58
1484269486.07,68,4.88,71744.3,-10.15,-11.01,-11.01,0,*5B
1484269487.26,69,4.88,71754.5,-10.15,-11.15,-11.01,0,*5F
1484269488.45,70,4.88,71752.3,-10.15,-11.23,-11.15,0,*57
1484269489.68,71,4.88,71720.3,-10.13,-11.23,-11.19,0,*5C
1484269490.89,72,4.88,71740.5,-10.15,-11.37,-11.23,0,*55
1484269492.13,73,4.81,71738.3,-10.15,-11.33,-11.29,0,*5A
1484269493.35,74,4.88,71764.5,-10.15,-11.41,-11.33,0,*53
1484269494.54,75,4.88,71808.3,-10.15,-11.19,-11.19,0,*57
1484269495.72,76,4.88,71728.5,-10.15,-11.19,-11.19,0,*54
1484269496.94,77,4.88,71722.0,-10.15,-11.19,-11.29,0,*56
1484269498.21,78,4.88,71714.8,-10.13,-11.29,-11.33,0,*57
1484269499.43,79,4.88,71738.3,-10.15,-11.41,-11.55,0,*5E
1484269500.66,80,4.88,71786.0,-10.15,-11.45,-11.55,0,*5C
1484269501.88,81,4.88,71796.5,-10.15,-11.33,-11.41,0,*59
1484269503.1,82,4.88,71796.5,-10.15,-11.29,-11.41,0,*51
1484269504.31,83,4.88,71828.3,-10.15,-11.19,-11.33,0,*56
1484269505.56,84,4.88,71822.5,-10.15,-11.29,-11.29,0,*59
1484269506.74,85,4.88,71812.3,-10.15,-11.19,-11.19,0,*58
1484269507.96,86,4.88,71808.8,-10.15,-11.29,-11.19,0,*58
1484269509.18,87,4.88,71742.0,-10.15,-11.55,-11.41,0,*5F
1484269510.38,88,4.88,71760.0,-10.15,-11.45,-11.45,0,*55
1484269511.63,89,4.88,71772.5,-10.15,-11.55,-11.55,0,*54
1484269512.83,90,4.88,71770.5,-10.15,-11.45,-11.45,0,*5C
1484269514.1,91,4.88,71768.5,-10.13,-11.67,-11.55,0,*5A
1484269515.32,92,4.88,71830.5,-10.15,-11.55,-11.45,0,*5F
1484269516.56,93,4.88,71812.5,-10.19,-11.33,-11.33,0,*53
1484269517.77,94,4.88,71782.5,-10.19,-11.41,-11.41,0,*54
1484269518.99,95,4.88,71798.8,-10.19,-11.55,-11.41,0,*50
1484269520.27,96,4.88,71764.8,-10.21,-11.85,-11.59,0,*5C
1484269521.51,97,4.88,71790.0,-10.19,-11.97,-11.59,0,*55
1484269522.76,98,4.88,71768.8,-10.19,-11.97,-11.59,0,*5A
1484269524.0,99,4.88,71770.8,-10.15,-11.97,-11.59,0,*57
1484269525.23,100,4.88,71794.5,-10.15,-11.85,-11.41,0,*6C
1484269526.5,101,4.88,71804.8,-10.13,-11.77,-11.37,0,*67
1484269527.72,102,4.88,71786.3,-10.15,-11.45,-11.33,0,*67
1484269528.95,103,4.88,71806.3,-10.15,-11.33,-11.19,0,*6F
1484269530.2,104,4.88,71790.8,-10.15,-11.29,-11.29,0,*60
1484269531.44,105,4.88,71800.3,-10.15,-11.33,-11.33,0,*61
1484269532.69,106,4.88,71810.3,-10.15,-11.33,-11.33,0,*62
1484269533.94,107,4.88,71820.0,-10.15,-11.29,-11.29,0,*63
1484269535.13,108,4.88,71830.3,-10.15,-11.19,-11.19,0,*6C
1484269536.39,109,4.88,71806.5,-10.15,-11.29,-11.29,0,*6D
1484269537.64,110,4.88,71804.0,-10.15,-11.29,-11.29,0,*65
1484269538.84,111,4.88,71812.5,-10.15,-11.15,-11.15,0,*64
1484269540.03,112,4.88,71834.0,-10.15,-11.19,-11.19,0,*67
1484269541.22,113,4.88,71810.8,-10.15,-11.15,-11.11,0,*62
1484269542.42,114,4.88,71810.8,-10.15,-11.19,-11.19,0,*61
1484269543.67,115,4.88,71794.8,-10.15,-11.29,-11.29,0,*60
1484269544.86,116,4.88,71824.3,-10.15,-11.19,-11.19,0,*63
1484269546.08,117,4.88,71854.3,-10.15,-11.19,-11.07,0,*6D
1484269547.28,118,4.88,71824.0,-10.15,-11.15,-11.15,0,*6D
1484269548.48,119,4.88,71822.3,-10.15,-11.15,-11.15,0,*6C
1484269549.7,120,4.88,71820.5,-10.13,-11.15,-11.15,0,*60
1484269550.9,121,4.88,71822.0,-10.15,-11.15,-11.15,0,*67
1484269552.1,122,4.88,71824.8,-10.15,-11.15,-11.15,0,*64
1484269553.35,123,4.88,71832.3,-10.15,-11.07,-11.07,0,*65
1484269554.58,124,4.88,71822.8,-10.13,-11.01,-11.11,0,*65
1484269555.78,125,4.88,71824.0,-10.15,-11.15,-11.15,0,*63
1484269557.01,126,4.81,71822.0,-10.13,-11.11,-11.01,0,*67
1484269558.23,127,4.81,71802.5,-10.13,-11.11,-11.01,0,*66
1484269559.46,128,4.81,71800.0,-10.13,-11.15,-11.01,0,*6D
1484269560.66,129,4.88,71788.8,-10.15,-11.11,-11.11,0,*6F
1484269561.88,130,4.88,71798.0,-10.13,-11.11,-11.11,0,*61
1484269563.08,131,4.88,71750.0,-10.15,-11.11,-11.11,0,*66
1484269564.31,132,4.88,71744.5,-10.13,-11.23,-11.11,0,*62
1484269565.53,133,4.88,71758.8,-10.13,-11.15,-11.23,0,*67
1484269566.76,134,4.88,71766.5,-10.13,-11.15,-11.11,0,*61
1484269568.01,135,4.88,71770.3,-10.15,-11.07,-11.07,0,*62
1484269569.24,136,4.88,71764.0,-10.13,-11.15,-11.11,0,*63
1484269570.47,137,4.88,71702.0,-10.13,-11.23,-11.23,0,*66
1484269571.69,138,4.81,71770.5,-10.13,-11.23,-11.15,0,*6C
1484269572.97,139,4.88,71660.5,-10.13,-11.37,-11.37,0,*68
1484269574.19,140,4.81,71676.3,-10.13,-11.15,-11.15,0,*66
1484269575.45,141,4.88,71690.5,-10.13,-11.29,-11.23,0,*6D
1484269576.72,142,4.88,71708.3,-10.13,-11.37,-11.37,0,*64
1484269577.93,143,4.88,71712.3,-10.15,-11.41,-11.41,0,*63
1484269579.16,144,4.81,71672.0,-10.13,-11.41,-11.41,0,*62
1484269580.41,145,4.88,71672.3,-10.15,-11.59,-11.55,0,*69
1484269581.64,146,4.88,71678.0,-10.15,-11.33,-11.41,0,*63
1484269582.86,147,4.88,71698.3,-10.15,-11.41,-11.33,0,*62
1484269584.14,148,4.81,71708.5,-10.13,-11.37,-11.29,0,*61
1484269585.38,149,4.88,71700.5,-10.15,-11.33,-11.33,0,*69
1484269586.6,150,4.88,71720.0,-10.15,-11.45,-11.33,0,*60
1484269587.81,151,4.81,71744.8,-10.15,-11.45,-11.45,0,*60
1484269589.06,152,4.81,71752.3,-10.13,-11.15,-11.29,0,*6A
1484269590.28,153,4.88,71792.8,-10.15,-11.07,-11.19,0,*6D
1484269591.51,154,4.88,71810.5,-10.13,-11.01,-11.11,0,*62
1484269592.77,155,4.81,71758.5,-10.15,-11.29,-11.29,0,*64
1484269593.98,156,4.88,71754.3,-10.15,-11.19,-11.33,0,*6F
1484269595.21,157,4.88,71760.0,-10.13,-11.15,-11.23,0,*65
1484269596.4,158,4.88,71780.3,-10.15,-11.19,-11.19,0,*69
1484269597.65,159,4.88,71740.3,-10.15,-11.07,-11.07,0,*68
1484269598.88,160,4.88,71728.8,-10.15,-10.97,-11.07,0,*6A
1484269600.08,161,4.88,71736.5,-10.15,-10.85,-10.89,0,*6F
1484269601.27,162,4.88,71770.5,-10.15,-10.89,-10.85,0,*6C
1484269602.52,163,4.88,71806.3,-10.15,-10.71,-10.75,0,*65
1484269603.74,164,4.88,71662.8,-10.15,-10.79,-10.85,0,*65
1484269604.98,165,4.88,71608.3,-10.13,-10.97,-10.97,0,*61
1484269606.21,166,4.88,71622.3,-10.13,-11.11,-11.01,0,*63
1484269607.41,167,4.81,71656.3,-10.15,-11.45,-11.41,0,*61
1484269608.66,168,4.88,71700.3,-10.15,-11.55,-11.55,0,*6A
1484269609.95,169,4.88,71726.3,-10.13,-11.63,-11.63,0,*6D
1484269611.23,170,4.81,71748.8,-10.13,-11.55,-11.55,0,*65
1484269612.48,171,4.88,71740.3,-10.15,-11.67,-11.59,0,*6F
1484269613.73,172,4.88,71746.5,-10.15,-11.59,-11.59,0,*61
1484269614.95,173,4.88,71754.8,-10.15,-11.59,-11.45,0,*6D
1484269616.23,174,4.88,71768.3,-10.13,-11.55,-11.51,0,*65
1484269617.45,175,4.81,71758.5,-10.15,-11.45,-11.33,0,*67
1484269618.71,176,4.81,71748.8,-10.13,-11.41,-11.37,0,*62
1484269619.96,177,4.88,71788.0,-10.13,-11.41,-11.37,0,*63
1484269621.16,178,4.88,71746.8,-10.15,-11.41,-11.41,0,*6B
1484269622.39,179,4.88,71724.3,-10.15,-11.55,-11.41,0,*6F
1484269623.65,180,4.81,71758.5,-10.13,-11.55,-11.41,0,*6F
1484269624.87,181,4.88,71818.3,-10.15,-11.55,-11.45,0,*6C
1484269626.08,182,4.88,71758.5,-10.15,-11.45,-11.45,0,*6E
1484269627.33,183,4.81,71780.5,-10.15,-11.67,-11.67,0,*6F
1484269628.61,184,4.88,71720.8,-10.13,-11.63,-11.55,0,*6B
1484269629.86,185,4.88,71754.0,-10.15,-11.59,-11.55,0,*65
1484269631.08,186,4.88,71734.5,-10.15,-11.55,-11.45,0,*6B
1484269632.32,187,4.81,71742.3,-10.13,-11.41,-11.41,0,*6D
1484269633.52,188,4.81,71752.0,-10.15,-11.45,-11.45,0,*64
1484269634.8,189,4.88,71782.5,-10.13,-11.29,-11.29,0,*63
1484269636.03,190,4.88,71806.3,-10.15,-11.07,-11.19,0,*62
1484269637.25,191,4.88,71778.8,-10.15,-11.15,-11.07,0,*6F
1484269638.51,192,4.88,71790.3,-10.15,-11.07,-11.07,0,*6F
1484269639.76,193,4.88,71792.8,-10.15,-11.07,-11.07,0,*6E
1484269641.02,194,4.88,71782.3,-10.15,-11.07,-11.07,0,*69
1484269642.24,195,4.88,71794.5,-10.13,-11.11,-11.11,0,*6E
1484269643.47,196,4.88,71822.3,-10.15,-11.07,-11.15,0,*68
1484269644.66,197,4.88,71846.5,-10.15,-11.15,-11.15,0,*6A
1484269645.9,198,4.88,71834.8,-10.13,-11.01,-11.01,0,*63
1484269647.15,199,4.88,71800.5,-10.15,-11.07,-11.07,0,*64
1484269648.38,200,4.88,71744.3,-10.13,-11.01,-11.01,0,*61
1484269649.61,201,4.88,71680.3,-10.15,-11.19,-11.07,0,*69
1484269650.89,202,4.81,71700.8,-10.13,-11.29,-11.29,0,*63
1484269652.16,203,4.88,71748.0,-10.13,-11.37,-11.37,0,*62
1484269653.41,204,4.88,71766.3,-10.15,-11.67,-11.67,0,*63
1484269654.69,205,4.81,71782.5,-10.13,-11.55,-11.67,0,*65
1484269655.94,206,4.88,71796.0,-10.15,-11.67,-11.77,0,*60
1484269657.18,207,4.88,71792.0,-10.15,-11.81,-11.81,0,*60
1484269658.46,208,4.88,71796.3,-10.13,-11.81,-11.89,0,*61
1484269659.7,209,4.88,71814.0,-10.15,-11.85,-11.85,0,*6E
1484269660.96,210,4.88,71806.5,-10.15,-11.93,-11.97,0,*62
1484269662.23,211,4.81,71814.8,-10.13,-11.89,-11.97,0,*6E
1484269663.51,212,4.81,71824.3,-10.13,-11.89,-11.89,0,*62
1484269664.77,213,4.88,71822.8,-10.15,-11.67,-11.67,0,*65
1484269666.0,214,4.88,71816.0,-10.13,-11.41,-11.41,0,*64
1484269667.25,215,4.88,71828.8,-10.13,-11.15,-11.29,0,*6A
1484269668.5,216,4.81,71834.0,-10.15,-11.29,-11.33,0,*6B
1484269669.76,217,4.88,71848.0,-10.13,-11.23,-11.29,0,*6D
1484269670.98,218,4.88,71832.5,-10.13,-11.15,-11.11,0,*6C
1484269672.21,219,4.88,71812.8,-10.13,-11.15,-11.15,0,*69
1484269673.43,220,4.81,71808.3,-10.13,-11.23,-11.15,0,*66
1484269674.66,221,4.88,71820.3,-10.13,-11.15,-11.15,0,*62
1484269675.89,222,4.88,71814.3,-10.13,-11.01,-11.11,0,*60
1484269677.15,223,4.88,71824.5,-10.15,-11.07,-11.07,0,*66
1484269678.38,224,4.88,71818.8,-10.13,-11.01,-11.11,0,*66
1484269679.6,225,4.88,71822.0,-10.13,-11.15,-11.01,0,*63
1484269680.83,226,4.88,71816.8,-10.13,-11.11,-11.11,0,*65
1484269682.06,227,4.88,71788.5,-10.13,-11.15,-11.01,0,*61
1484269683.28,228,4.88,71806.5,-10.13,-11.15,-11.11,0,*6F
1484269684.51,229,4.81,71834.8,-10.13,-11.01,-11.01,0,*6A
1484269685.74,230,4.88,71854.0,-10.13,-11.15,-11.15,0,*62
1484269686.97,231,4.81,71818.0,-10.13,-11.01,-11.01,0,*63
1484269688.2,232,4.88,71754.5,-10.13,-11.11,-11.01,0,*61
1484269689.43,233,4.81,71800.3,-10.13,-11.11,-11.01,0,*60
1484269690.67,234,4.88,71796.8,-10.09,-11.11,-11.07,0,*6A
1484269691.87,235,4.88,71826.5,-10.09,-11.23,-11.19,0,*65
1484269693.08,236,4.81,71822.0,-10.09,-11.23,-11.11,0,*6E
1484269694.33,237,4.88,71840.8,-10.09,-11.37,-11.33,0,*6A
1484269695.56,238,4.88,71832.3,-10.09,-11.51,-11.23,0,*64
1484269696.8,239,4.81,71830.3,-10.09,-11.45,-11.33,0,*61
1484269698.03,240,4.88,71836.8,-10.09,-11.37,-11.19,0,*62
1484269699.26,241,4.88,71864.8,-10.09,-11.37,-11.11,0,*6B
1484269700.49,242,4.88,71840.5,-10.09,-11.33,-11.11,0,*6C
1484269701.7,243,4.88,71828.0,-10.09,-11.23,-11.11,0,*6C
1484269702.9,244,4.88,71826.8,-10.09,-11.19,-11.11,0,*62
1484269704.14,245,4.88,71840.3,-10.09,-11.07,-10.97,0,*63
1484269705.38,246,4.88,71816.3,-10.07,-10.97,-10.97,0,*66
1484269706.62,247,4.88,71806.5,-10.09,-11.07,-10.97,0,*61